• Join FlightAware (Why Join?)
  • Login
  • US Flag 
05:27PM EST


 

Airport Tracker/Info


-or-


 

Live Flight TrackerFlight Track Log ✈ FDX1482 ✈ 06-Jul-2013 ✈ KMEM - KBWI

Flight Track Log - Related Links

Times and Time Zones

All times are in EDT time to prevent confusion due to time zone crossing. See the FDX1482 flight status page for this flight to view local times or setup timezone preferences in your user account.

Time Position Orientation Groundspeed Altitude Reporting Facility
EDT Latitude Longitude Course Direction KTS MPH feet Rate Location/Type
04:40AM 35.0333 -89.9667 180° South 145 167 1,000  Level KMEM
04:41AM 35.0000 -89.9667 180° South 147 169 2,500 2,588 Climbing KMEM
04:42AM 34.9500 -89.9333 151° Southeast 273 314 5,400 3,474 Climbing KMEM
04:43AM 34.9667 -89.8500 76° East 294 338 9,100 3,672 Climbing KMEM
04:44AM 35.0081 -89.7639 60° Northeast 321 369 12,500 2,557 Climbing Memphis Center
04:45AM 35.0511 -89.6469 66° East 351 404 14,300 2,600 Climbing Memphis Center
04:46AM 35.1044 -89.5017 66° East 401 461 17,700 3,200 Climbing Memphis Center
04:47AM 35.1556 -89.3589 66° East 434 499 20,700 2,800 Climbing Memphis Center
04:48AM 35.2106 -89.2108 66° East 458 527 23,300 2,950 Climbing Memphis Center
04:49AM 35.2675 -89.0650 64° Northeast 476 548 26,600 2,850 Climbing Memphis Center
04:50AM 35.3222 -88.9167 66° East 476 548 29,000 1,600 Climbing Memphis Center
04:51AM 35.3789 -88.7656 65° Northeast 476 548 29,800 1,400 Climbing Memphis Center
04:52AM 35.4372 -88.6064 66° East 485 558 31,800 1,750 Climbing Memphis Center
04:53AM 35.4931 -88.4444 67° East 497 572 33,300 342 Climbing Memphis Center
04:58AM 35.8190 -87.5140 67° East 35,000 204 Climbing FlightAware
04:59AM 35.8580 -87.4000 67° East 35,000  Level FlightAware
05:00AM 35.8960 -87.2900 67° East 35,000  Level FlightAware
05:00AM 35.9280 -87.1930 68° East 35,000  Level FlightAware
05:01AM 35.9658 -87.0818 67° East 519 597 35,000  Level FlightAware ADS-B
05:02AM 35.9938 -86.9992 67° East 521 600 35,000  Level FlightAware ADS-B
05:02AM 36.0214 -86.9166 68° East 497 572 35,000  Level FlightAware ADS-B
05:03AM 36.0491 -86.8337 68° East 508 585 35,000  Level FlightAware ADS-B
05:03AM 36.0860 -86.7235 67° East 514 592 35,000  Level FlightAware ADS-B
05:04AM 36.1200 -86.6210 68° East 35,000  Level FlightAware
05:04AM 36.1268 -86.6008 67° East 517 595 35,000  Level FlightAware ADS-B
05:05AM 36.1534 -86.5206 68° East 509 586 35,000  Level FlightAware ADS-B
05:05AM 36.1821 -86.4336 68° East 495 570 35,000  Level FlightAware ADS-B
05:06AM 36.2094 -86.3503 68° East 525 604 35,000  Level FlightAware ADS-B
05:06AM 36.2367 -86.2674 68° East 523 602 35,000  Level FlightAware ADS-B
05:07AM 36.2640 -86.1843 68° East 521 600 35,000  Level FlightAware ADS-B
05:07AM 36.3080 -86.0510 68° East 35,000  Level FlightAware
05:08AM 36.3318 -85.9763 68° East 513 590 35,000  Level FlightAware ADS-B
05:08AM 36.3594 -85.8911 68° East 516 594 35,000  Level FlightAware ADS-B
05:09AM 36.3878 -85.8029 68° East 523 602 35,000  Level FlightAware ADS-B
05:09AM 36.4152 -85.7172 68° East 514 592 35,000  Level FlightAware ADS-B
05:10AM 36.4432 -85.6304 68° East 500 575 35,000  Level FlightAware ADS-B
05:10AM 36.4722 -85.5397 68° East 517 595 35,000  Level FlightAware ADS-B
05:11AM 36.4990 -85.4561 68° East 510 587 35,000  Level FlightAware ADS-B
05:11AM 36.5251 -85.3739 68° East 518 596 35,000  Level FlightAware ADS-B
05:12AM 36.5522 -85.2889 68° East 506 582 35,000  Level FlightAware ADS-B
05:13AM 36.5804 -85.1995 69° East 511 588 35,000  Level FlightAware ADS-B
05:13AM 36.6087 -85.1100 68° East 515 593 35,000  Level FlightAware ADS-B
05:14AM 36.6354 -85.0249 69° East 512 589 35,000  Level FlightAware ADS-B
05:14AM 36.6638 -84.9346 69° East 521 600 35,000  Level FlightAware ADS-B
05:15AM 36.6916 -84.8459 69° East 503 579 35,000  Level FlightAware ADS-B
05:15AM 36.7205 -84.7537 69° East 505 581 35,000  Level FlightAware ADS-B
05:16AM 36.7462 -84.6708 69° East 496 571 35,000  Level FlightAware ADS-B
05:16AM 36.7721 -84.5868 69° East 523 602 35,000  Level FlightAware ADS-B
05:17AM 36.7977 -84.5048 69° East 512 589 35,000  Level FlightAware ADS-B
05:17AM 36.8232 -84.4215 69° East 501 577 35,000  Level FlightAware ADS-B
05:18AM 36.8490 -84.3381 69° East 502 578 35,000  Level FlightAware ADS-B
05:18AM 36.8746 -84.2543 69° East 510 587 35,000  Level FlightAware ADS-B
05:19AM 36.9010 -84.1670 69° East 35,000  Level FlightAware
05:19AM 36.9207 -84.1029 69° East 512 589 35,000  Level FlightAware ADS-B
05:20AM 36.9468 -84.0174 69° East 512 589 35,000  Level FlightAware ADS-B
05:20AM 36.9717 -83.9350 69° East 503 579 35,000  Level FlightAware ADS-B
05:21AM 36.9965 -83.8530 69° East 506 582 35,000  Level FlightAware ADS-B
05:21AM 37.0214 -83.7713 69° East 497 572 35,000  Level FlightAware ADS-B
05:22AM 37.0486 -83.6816 69° East 507 583 35,000  Level FlightAware ADS-B
05:22AM 37.0746 -83.5967 69° East 513 590 35,000  Level FlightAware ADS-B
05:23AM 37.1027 -83.5042 69° East 494 568 35,000  Level FlightAware ADS-B
05:24AM 37.1360 -83.3936 69° East 487 560 35,000  Level FlightAware ADS-B
05:24AM 37.1666 -83.2922 69° East 499 574 35,000  Level FlightAware ADS-B
05:25AM 37.2100 -83.1480 69° East 35,000  Level FlightAware
05:26AM 37.2552 -82.9957 70° East 497 572 35,000  Level FlightAware ADS-B
05:27AM 37.2820 -82.9040 70° East 35,000  Level FlightAware
05:27AM 37.2915 -82.8731 69° East 497 572 35,000  Level FlightAware ADS-B
05:27AM 37.3159 -82.7909 70° East 487 560 35,000  Level FlightAware ADS-B
05:28AM 37.3405 -82.7071 70° East 490 564 35,000  Level FlightAware ADS-B
05:29AM 37.3789 -82.5765 70° East 489 563 35,000  Level FlightAware ADS-B
05:30AM 37.4179 -82.4433 70° East 493 567 35,000  Level FlightAware ADS-B
05:30AM 37.4422 -82.3598 70° East 494 568 35,000  Level FlightAware ADS-B
05:31AM 37.4776 -82.2369 70° East 505 581 35,000  Level FlightAware ADS-B
05:31AM 37.5023 -82.1518 70° East 506 582 35,000  Level FlightAware ADS-B
05:32AM 37.5262 -82.0686 70° East 496 571 35,000  Level FlightAware ADS-B
05:32AM 37.5511 -81.9819 70° East 493 567 35,000  Level FlightAware ADS-B
05:33AM 37.5743 -81.9007 70° East 477 549 35,000  Level FlightAware ADS-B
05:33AM 37.5980 -81.8171 70° East 502 578 35,000  Level FlightAware ADS-B
05:34AM 37.6222 -81.7320 70° East 496 571 35,000  Level FlightAware ADS-B
05:34AM 37.6452 -81.6507 70° East 495 570 35,000  Level FlightAware ADS-B
05:35AM 37.6687 -81.5682 70° East 502 578 35,000  Level FlightAware ADS-B
05:35AM 37.6915 -81.4871 70° East 487 560 35,000  Level FlightAware ADS-B
05:36AM 37.7145 -81.4049 70° East 488 562 35,000  Level FlightAware ADS-B
05:36AM 37.7375 -81.3230 70° East 501 577 35,000  Level FlightAware ADS-B
05:37AM 37.7630 -81.2330 70° East 35,000  Level FlightAware
05:37AM 37.7726 -81.1972 71° East 479 551 35,000  Level FlightAware ADS-B
05:38AM 37.8026 -81.0889 71° East 478 550 35,000  Level FlightAware ADS-B
05:38AM 37.8261 -81.0031 71° East 468 539 35,000  Level FlightAware ADS-B
05:39AM 37.8561 -80.8932 71° East 490 564 35,000  Level FlightAware ADS-B
05:40AM 37.8790 -80.8101 71° East 499 574 35,000  Level FlightAware ADS-B
05:40AM 37.9021 -80.7255 71° East 494 568 35,000  Level FlightAware ADS-B
05:41AM 37.9264 -80.6366 71° East 496 571 35,000  Level FlightAware ADS-B
05:41AM 37.9492 -80.5530 71° East 480 552 35,000 -928 Level FlightAware ADS-B
05:42AM 37.9760 -80.4530 71° East 35,000 -951 Level FlightAware
05:43AM 38.0080 -80.3340 71° East 35,000 -982 Level FlightAware
05:43AM 38.0380 -80.2250 71° East 35,000 -1,019 Level FlightAware
05:44AM 38.0670 -80.1140 72° East 35,000 -1,056 Level FlightAware
05:45AM 38.1010 -79.9870 71° East 35,000 -1,096 Level FlightAware
05:45AM 38.1280 -79.8800 72° East 35,000 -1,145 Level FlightAware
05:46AM 38.1530 -79.7700 74° East 35,000 -1,191 Level FlightAware
05:47AM 38.1820 -79.6440 74° East 35,000 -1,242 Level FlightAware
05:47AM 38.2080 -79.5350 73° East 35,000 -1,305 Level FlightAware
05:48AM 38.2350 -79.4170 74° East 35,000 -1,366 Level FlightAware
05:49AM 38.2600 -79.3080 74° East 35,000 -1,438 Level FlightAware
05:49AM 38.2830 -79.2100 73° East 35,000 -1,512 Level FlightAware
05:50AM 38.3020 -79.1240 74° East 34,400 -1,587 Descending FlightAware
05:51AM 38.3330 -78.9900 74° East 32,100 -1,610 Descending FlightAware
05:51AM 38.3540 -78.8980 74° East 29,000 -1,518 Descending FlightAware
05:52AM 38.3860 -78.7760 71° East 25,700 -1,310 Descending FlightAware
05:53AM 38.4180 -78.6640 70° East 24,600 -1,062 Descending FlightAware
05:54AM 38.4490 -78.5520 71° East 23,600 -1,022 Descending FlightAware
05:54AM 38.4800 -78.4410 70° East 22,600 -992 Descending FlightAware
05:55AM 38.5090 -78.3400 70° East 21,900 -952 Descending FlightAware
05:56AM 38.5410 -78.2260 70° East 21,000 -938 Descending FlightAware
05:56AM 38.5640 -78.1420 71° East 19,600 -903 Descending FlightAware
05:57AM 38.5930 -78.0360 71° East 19,000 -746 Descending FlightAware
05:58AM 38.6250 -77.9200 71° East 19,000 -730 Level FlightAware
05:58AM 38.6430 -77.8290 76° East 18,800 -864 Descending FlightAware
05:59AM 38.6500 -77.7190 85° East 18,000 -944 Descending FlightAware
06:00AM 38.6560 -77.6030 86° East 17,100 -886 Descending FlightAware
06:00AM 38.6610 -77.5180 86° East 16,600 -779 Descending FlightAware
06:01AM 38.6680 -77.4010 86° East 15,900 -727 Descending FlightAware
06:01AM 38.6700 -77.3710 85° East 15,800 -545 Descending FlightAware ADS-B
06:02AM 38.6764 -77.2625 86° East 424 488 15,400 -1,500 Descending FlightAware ADS-B
06:02AM 38.6810 -77.1812 86° East 408 470 13,900 -1,689 Descending FlightAware ADS-B
06:03AM 38.6860 -77.0940 86° East 12,700 -1,491 Descending FlightAware
06:04AM 38.6920 -76.9910 86° East 11,500 -1,358 Descending FlightAware
06:04AM 38.6970 -76.8930 86° East 10,200 -1,226 Descending FlightAware
06:05AM 38.6990 -76.8640 85° East 10,000 -735 Descending FlightAware
06:05AM 38.7010 -76.8170 87° East 9,800 -686 Descending FlightAware
06:05AM 38.7024 -76.7958 85° East 329 379 9,600 -917 Descending FlightAware ADS-B
06:06AM 38.7090 -76.7360 82° East 8,700 -913 Descending FlightAware
06:06AM 38.7270 -76.6930 62° Northeast 8,000 -864 Descending FlightAware
06:06AM 38.7350 -76.6740 62° Northeast 7,700 -825 Descending FlightAware
06:07AM 38.7520 -76.6350 61° Northeast 7,000 -807 Descending FlightAware
06:07AM 38.7670 -76.6030 59° Northeast 6,500 -757 Descending FlightAware
06:08AM 38.7820 -76.5670 62° Northeast 5,800 -720 Descending FlightAware
06:08AM 38.7940 -76.5450 55° Northeast 5,400 -654 Descending FlightAware
06:08AM 38.8090 -76.5170 55° Northeast 4,800 -617 Descending FlightAware
06:09AM 38.8160 -76.5040 55° Northeast 4,600 -554 Descending FlightAware
06:09AM 38.8290 -76.4910 38° Northeast 4,200 -545 Descending FlightAware
06:09AM 38.8680 -76.4830 North 3,800 -489 Descending FlightAware
06:10AM 38.9020 -76.4880 353° North 3,800 -445 Level FlightAware
06:10AM 38.9330 -76.4940 351° North 3,800 -498 Level FlightAware
06:10AM 38.9530 -76.4980 351° North 3,800 -565 Level FlightAware
06:11AM 38.9820 -76.5030 352° North 3,800 -621 Level FlightAware
06:11AM 38.9990 -76.5100 342° North 3,700 -728 Descending FlightAware
06:12AM 39.0200 -76.5260 329° Northwest 3,300 -784 Descending FlightAware
06:12AM 39.0300 -76.5350 325° Northwest 3,100 -780 Descending FlightAware
06:12AM 39.0460 -76.5500 324° Northwest 2,700 -778 Descending FlightAware
06:13AM 38.9770 -76.5030 152° Southeast 2,300 -723 Descending FlightAware
06:13AM 39.0640 -76.5690 330° Northwest 2,100 -643 Descending FlightAware
06:14AM 39.1000 -76.6000 330° Northwest 175 201 1,700 -804 Descending Potomac TRACON
06:15AM 39.1333 -76.6333 322° Northwest 142 163 800 -885 Descending Potomac TRACON
06:17AM 39.1667 -76.6667 339° North  Level FlightAware Approximate
06:24AM 39.1754 -76.6683 339° North  Level Estimated
06:25AM 39.1754 -76.6683 339° North  Level Estimated